• In Lithuania
  • List of Countries
  • For 7 days
  • Water Temperature
  • Satellite Maps
  • Weather Map
  • Weather Widgets
  • user-avatar
    Login

    Hourly Weather Melbourne

    Today, 23 May, Wednesday

    Time Temperature Precipitation Wind Pressure Humidity
    00:00 +13°C° 0 mm 3 mps 768 mmHg 94%
    01:00 +13°C° 0 mm 3 mps 768 mmHg 95%
    02:00 +13°C° 0 mm 3 mps 768 mmHg 95%
    03:00 +14°C° 0 mm 2 mps 768 mmHg 95%
    04:00 +14°C° 0 mm 2 mps 768 mmHg 95%
    05:00 +14°C° 0 mm 2 mps 768 mmHg 95%
    06:00 +14°C° 0 mm 2 mps 768 mmHg 95%
    07:00 +14°C° 0 mm 2 mps 768 mmHg 94%
    08:00 +15°C° 0 mm 2 mps 768 mmHg 92%
    09:00 +14°C° 0 mm 3 mps 769 mmHg 89%
    10:00 +14°C° 0 mm 3 mps 769 mmHg 85%
    11:00 +14°C° 0 mm 3 mps 769 mmHg 83%
    12:00 +16°C° 0 mm 3 mps 768 mmHg 81%
    13:00 +16°C° 0 mm 3 mps 768 mmHg 79%
    14:00 +16°C° 0 mm 3 mps 768 mmHg 79%
    15:00 +16°C° 0 mm 3 mps 768 mmHg 79%
    16:00 +14°C° 0 mm 3 mps 768 mmHg 79%
    17:00 +14°C° 0 mm 3 mps 768 mmHg 82%
    18:00 +14°C° 0 mm 2 mps 768 mmHg 85%
    19:00 +13°C° 0 mm 2 mps 768 mmHg 89%
    20:00 +13°C° 0 mm 2 mps 768 mmHg 89%
    21:00 +13°C° 0 mm 2 mps 768 mmHg 90%
    22:00 +12°C° 0 mm 2 mps 768 mmHg 91%
    23:00 +12°C° 0 mm 2 mps 768 mmHg 92%

    Tomorrow, 24 May, Thursday

    Time Temperature Precipitation Wind Pressure Humidity
    00:00 +12°C° 0 mm 2 mps 768 mmHg 92%
    01:00 +12°C° 0 mm 2 mps 768 mmHg 92%
    02:00 +12°C° 0 mm 2 mps 768 mmHg 92%
    03:00 +12°C° 0 mm 2 mps 768 mmHg 92%
    04:00 +12°C° 0 mm 2 mps 768 mmHg 92%
    05:00 +12°C° 0 mm 2 mps 768 mmHg 92%
    06:00 +12°C° 0 mm 2 mps 769 mmHg 92%
    07:00 +12°C° 0 mm 2 mps 769 mmHg 91%
    08:00 +11°C° 0 mm 3 mps 769 mmHg 87%
    09:00 +12°C° 0 mm 3 mps 769 mmHg 84%
    10:00 +13°C° 0 mm 3 mps 769 mmHg 80%
    11:00 +13°C° 0 mm 3 mps 769 mmHg 77%
    12:00 +14°C° 0 mm 3 mps 768 mmHg 74%
    13:00 +14°C° 0 mm 3 mps 768 mmHg 71%
    14:00 +14°C° 0 mm 3 mps 768 mmHg 72%
    15:00 +14°C° 0 mm 3 mps 768 mmHg 73%
    16:00 +15°C° 0 mm 2 mps 768 mmHg 74%
    17:00 +14°C° 0 mm 2 mps 768 mmHg 80%
    18:00 +13°C° 0 mm 2 mps 769 mmHg 86%
    19:00 +12°C° 0 mm 2 mps 769 mmHg 92%
    20:00 +12°C° 0 mm 2 mps 769 mmHg 91%
    21:00 +12°C° 0 mm 2 mps 769 mmHg 91%
    22:00 +12°C° 0 mm 2 mps 770 mmHg 90%
    23:00 +12°C° 0 mm 2 mps 770 mmHg 90%

    Day after tomorrow, 25 May, Friday

    Time Temperature Precipitation Wind Pressure Humidity
    00:00 +10°C° 0 mm 2 mps 770 mmHg 89%
    01:00 +10°C° 0 mm 2 mps 770 mmHg 89%
    02:00 +10°C° 0 mm 1 mps 770 mmHg 90%
    03:00 +10°C° 0 mm 1 mps 770 mmHg 91%
    04:00 +9°C° 0 mm 1 mps 769 mmHg 92%
    05:00 +9°C° 0 mm 1 mps 770 mmHg 93%
    06:00 +8°C° 0 mm 1 mps 770 mmHg 94%
    07:00 +8°C° 0 mm 1 mps 770 mmHg 94%
    08:00 +10°C° 0 mm 1 mps 770 mmHg 87%
    09:00 +10°C° 0 mm 0 mps 770 mmHg 81%
    10:00 +12°C° 0 mm 0 mps 770 mmHg 74%
    11:00 +13°C° 0 mm 0 mps 770 mmHg 68%
    12:00 +16°C° 0 mm 1 mps 769 mmHg 62%
    13:00 +18°C° 0 mm 1 mps 769 mmHg 56%
    14:00 +18°C° 0 mm 1 mps 769 mmHg 59%
    15:00 +18°C° 0 mm 1 mps 769 mmHg 61%
    16:00 +16°C° 0 mm 1 mps 768 mmHg 64%
    17:00 +15°C° 0 mm 1 mps 769 mmHg 71%
    18:00 +13°C° 0 mm 1 mps 769 mmHg 79%
    19:00 +11°C° 0 mm 1 mps 769 mmHg 87%
    20:00 +11°C° 0 mm 1 mps 769 mmHg 88%
    21:00 +10°C° 0 mm 1 mps 770 mmHg 89%
    22:00 +10°C° 0 mm 1 mps 770 mmHg 91%
    23:00 +10°C° 0 mm 1 mps 770 mmHg 91%

    26 May, Saturday

    Time Temperature Precipitation Wind Pressure Humidity
    00:00 +10°C° 0 mm 1 mps 769 mmHg 92%
    01:00 +10°C° 0 mm 1 mps 769 mmHg 93%
    02:00 +10°C° 0 mm 1 mps 769 mmHg 93%
    03:00 +10°C° 0 mm 1 mps 769 mmHg 93%
    04:00 +10°C° 0 mm 1 mps 769 mmHg 93%
    05:00 +10°C° 0 mm 1 mps 769 mmHg 93%
    06:00 +9°C° 0 mm 2 mps 769 mmHg 93%
    07:00 +9°C° 0 mm 2 mps 769 mmHg 93%
    08:00 +12°C° 0 mm 2 mps 769 mmHg 86%
    09:00 +12°C° 0 mm 3 mps 769 mmHg 78%
    10:00 +14°C° 0 mm 3 mps 769 mmHg 71%
    11:00 +17°C° 0 mm 3 mps 769 mmHg 66%
    12:00 +18°C° 0 mm 3 mps 768 mmHg 62%
    13:00 +20°C° 0 mm 3 mps 768 mmHg 57%
    14:00 +20°C° 0 mm 3 mps 767 mmHg 60%
    15:00 +19°C° 0 mm 2 mps 767 mmHg 63%
    16:00 +19°C° 0 mm 2 mps 767 mmHg 65%
    17:00 +18°C° 0 mm 2 mps 767 mmHg 72%
    18:00 +16°C° 0 mm 3 mps 767 mmHg 79%
    19:00 +13°C° 0 mm 3 mps 767 mmHg 85%
    20:00 +13°C° 0 mm 3 mps 767 mmHg 85%
    21:00 +13°C° 0 mm 3 mps 767 mmHg 84%
    22:00 +13°C° 0 mm 3 mps 767 mmHg 83%
    23:00 +13°C° 0 mm 3 mps 767 mmHg 82%

    27 May, Sunday

    Time Temperature Precipitation Wind Pressure Humidity
    00:00 +14°C° 0 mm 3 mps 767 mmHg 80%
    01:00 +14°C° 0 mm 3 mps 767 mmHg 78%
    02:00 +14°C° 0 mm 3 mps 766 mmHg 78%
    03:00 +14°C° 0 mm 3 mps 766 mmHg 77%
    04:00 +14°C° 0 mm 3 mps 766 mmHg 76%
    05:00 +14°C° 0 mm 4 mps 766 mmHg 75%
    06:00 +14°C° 0 mm 4 mps 766 mmHg 74%
    07:00 +14°C° 0 mm 4 mps 766 mmHg 73%
    08:00 +15°C° 0.1 mm 4 mps 766 mmHg 71%
    09:00 +17°C° 0.1 mm 4 mps 767 mmHg 69%
    10:00 +17°C° 0.1 mm 5 mps 767 mmHg 66%
    11:00 +19°C° 0.2 mm 5 mps 766 mmHg 65%
    12:00 +19°C° 0.2 mm 5 mps 766 mmHg 63%
    13:00 +20°C° 0.2 mm 5 mps 765 mmHg 62%
    14:00 +20°C° 0 mm 5 mps 765 mmHg 63%
    15:00 +19°C° 0 mm 4 mps 765 mmHg 65%
    16:00 +19°C° 0 mm 4 mps 765 mmHg 67%
    17:00 +18°C° 0.1 mm 4 mps 765 mmHg 72%
    18:00 +17°C° 0.1 mm 4 mps 765 mmHg 76%
    19:00 +15°C° 0.1 mm 4 mps 765 mmHg 80%
    20:00 +15°C° 0 mm 4 mps 765 mmHg 79%
    21:00 +15°C° 0 mm 4 mps 765 mmHg 77%
    22:00 +17°C° 0 mm 4 mps 766 mmHg 76%
    23:00 +15°C° 0.1 mm 4 mps 765 mmHg 77%

    28 May, Monday

    Time Temperature Precipitation Wind Pressure Humidity
    00:00 +15°C° 0.1 mm 4 mps 765 mmHg 79%
    01:00 +15°C° 0.1 mm 4 mps 765 mmHg 80%
    02:00 +15°C° 0.1 mm 4 mps 765 mmHg 80%
    03:00 +15°C° 0.1 mm 4 mps 765 mmHg 79%
    04:00 +15°C° 0.1 mm 4 mps 765 mmHg 79%
    05:00 +15°C° 0.3 mm 4 mps 765 mmHg 78%
    06:00 +15°C° 0.3 mm 4 mps 765 mmHg 77%
    07:00 +15°C° 0.3 mm 4 mps 765 mmHg 75%
    08:00 +15°C° 0 mm 5 mps 765 mmHg 73%
    09:00 +16°C° 0 mm 5 mps 764 mmHg 70%
    10:00 +17°C° 0 mm 6 mps 764 mmHg 67%
    11:00 +17°C° 0.1 mm 6 mps 764 mmHg 66%
    12:00 +19°C° 0.1 mm 6 mps 763 mmHg 65%
    13:00 +20°C° 0.1 mm 5 mps 763 mmHg 64%
    14:00 +20°C° 0 mm 5 mps 762 mmHg 64%
    15:00 +20°C° 0 mm 5 mps 762 mmHg 64%
    16:00 +20°C° 0 mm 5 mps 761 mmHg 65%
    17:00 +19°C° 0 mm 5 mps 761 mmHg 67%
    18:00 +17°C° 0 mm 5 mps 762 mmHg 68%
    19:00 +17°C° 0 mm 5 mps 762 mmHg 70%
    20:00 +17°C° 0.3 mm 5 mps 761 mmHg 69%
    21:00 +17°C° 0.3 mm 5 mps 761 mmHg 68%
    22:00 +17°C° 0.3 mm 5 mps 761 mmHg 67%
    23:00 +17°C° 0 mm 5 mps 761 mmHg 66%
    Show more